| time (UTC) | temp C | wind direction | speed KPH | gust KPH | rain 1hr cm | rain 24hr cm | rain mn cm | humidity % | barometer mb |
| 20260906210447 | 33 | 161 | 12.9 | 27.4 | 0.00 | 0.00 | 0.00 | 35 | 1013.3 |
| 20260906205946 | 33 | 96 | 11.3 | 27.4 | 0.00 | 0.00 | 0.00 | 34 | 1013.4 |
| 20260906205715 | 33 | 138 | 9.7 | 25.7 | 0.00 | 0.00 | 0.00 | 36 | 1013.4 |
| 20260906204943 | 33 | 112 | 9.7 | 20.9 | 0.00 | 0.00 | 0.00 | 36 | 1013.3 |
| 20260906204444 | 33 | 51 | 6.4 | 20.9 | 0.00 | 0.00 | 0.00 | 36 | 1013.4 |
| 20260906203945 | 33 | 234 | 6.4 | 20.9 | 0.00 | 0.00 | 0.00 | 37 | 1013.4 |
| 20260906203444 | 32 | 106 | 9.7 | 20.9 | 0.00 | 0.00 | 0.00 | 36 | 1013.6 |
| 20260906203216 | 32 | 65 | 12.9 | 25.7 | 0.00 | 0.00 | 0.00 | 37 | 1013.7 |
| 20260906202443 | 32 | 96 | 12.9 | 25.7 | 0.00 | 0.00 | 0.00 | 37 | 1013.7 |
| 20260906201941 | 32 | 101 | 11.3 | 25.7 | 0.00 | 0.00 | 0.00 | 37 | 1013.8 |
| 20260906201446 | 33 | 96 | 12.9 | 24.1 | 0.00 | 0.00 | 0.00 | 36 | 1014.0 |
| 20260906201441 | 32 | 118 | 12.9 | 25.7 | 0.00 | 0.00 | 0.00 | 37 | 1014.0 |
| 20260906200442 | 33 | 101 | 11.3 | 24.1 | 0.00 | 0.00 | 0.00 | 36 | 1014.0 |
| 20260906195942 | 33 | 141 | 9.7 | 22.5 | 0.00 | 0.00 | 0.00 | 35 | 1013.8 |
| 20260906195712 | 33 | 146 | 9.7 | 22.5 | 0.00 | 0.00 | 0.00 | 35 | 1014.1 |
| 20260906194943 | 33 | 131 | 9.7 | 20.9 | 0.00 | 0.00 | 0.00 | 35 | 1014.1 |
| 20260906194441 | 33 | 150 | 11.3 | 20.9 | 0.00 | 0.00 | 0.00 | 35 | 1014.2 |
| 20260906193942 | 33 | 136 | 9.7 | 22.5 | 0.00 | 0.00 | 0.00 | 34 | 1014.2 |
| 20260906193441 | 33 | 119 | 8.0 | 22.5 | 0.00 | 0.00 | 0.00 | 35 | 1014.2 |
| 20260906192939 | 33 | 103 | 9.7 | 25.7 | 0.00 | 0.00 | 0.00 | 34 | 1014.3 |
| 20260906192439 | 33 | 170 | 11.3 | 25.7 | 0.00 | 0.00 | 0.00 | 34 | 1014.5 |
| 20260906191938 | 33 | 153 | 8.0 | 24.1 | 0.00 | 0.00 | 0.00 | 35 | 1014.4 |
| 20260906191440 | 32 | 204 | 9.7 | 29.0 | 0.00 | 0.00 | 0.00 | 36 | 1014.5 |
| 20260906190939 | 32 | 166 | 11.3 | 29.0 | 0.00 | 0.00 | 0.00 | 35 | 1014.6 |
| 20260906190439 | 32 | 160 | 8.0 | 22.5 | 0.00 | 0.00 | 0.00 | 36 | 1014.4 |
| 20260906190210 | 32 | 132 | 6.4 | 16.1 | 0.00 | 0.00 | 0.00 | 38 | 1014.5 |
| 20260906185439 | 32 | 101 | 9.7 | 27.4 | 0.00 | 0.00 | 0.00 | 38 | 1014.6 |
| 20260906184942 | 32 | 151 | 9.7 | 25.7 | 0.00 | 0.00 | 0.00 | 38 | 1014.8 |
| 20260906184936 | 31 | 171 | 9.7 | 27.4 | 0.00 | 0.00 | 0.00 | 37 | 1014.8 |
| 20260906183938 | 32 | 240 | 9.7 | 19.3 | 0.00 | 0.00 | 0.00 | 38 | 1014.9 |
| 20260906183438 | 31 | 142 | 8.0 | 24.1 | 0.00 | 0.00 | 0.00 | 39 | 1015.0 |
| 20260906182938 | 31 | 126 | 9.7 | 24.1 | 0.00 | 0.00 | 0.00 | 39 | 1015.1 |
| 20260906182437 | 31 | 209 | 6.4 | 19.3 | 0.00 | 0.00 | 0.00 | 40 | 1015.2 |
| 20260906182208 | 31 | 308 | 4.8 | 17.7 | 0.00 | 0.00 | 0.00 | 40 | 1015.2 |
| 20260906181439 | 31 | 221 | 4.8 | 17.7 | 0.00 | 0.00 | 0.00 | 40 | 1015.4 |
| 20260906180937 | 31 | 117 | 8.0 | 19.3 | 0.00 | 0.00 | 0.00 | 40 | 1015.4 |
| 20260906180442 | 30 | 128 | 9.7 | 22.5 | 0.00 | 0.00 | 0.00 | 42 | 1015.6 |
| 20260906180438 | 31 | 169 | 9.7 | 19.3 | 0.00 | 0.00 | 0.00 | 40 | 1015.6 |
| 20260906175436 | 30 | 69 | 6.4 | 22.5 | 0.00 | 0.00 | 0.00 | 42 | 1015.7 |
| 20260906174937 | 30 | 252 | 6.4 | 20.9 | 0.00 | 0.00 | 0.00 | 42 | 1015.7 |
| 20260906174708 | 30 | 106 | 8.0 | 20.9 | 0.00 | 0.00 | 0.00 | 42 | 1015.9 |
| 20260906173937 | 29 | 107 | 8.0 | 17.7 | 0.00 | 0.00 | 0.00 | 44 | 1015.9 |
| 20260906173436 | 29 | 296 | 9.7 | 25.7 | 0.00 | 0.00 | 0.00 | 43 | 1016.0 |
| 20260906172938 | 29 | 163 | 6.4 | 25.7 | 0.00 | 0.00 | 0.00 | 44 | 1016.1 |
| 20260906172438 | 29 | 254 | 3.2 | 14.5 | 0.00 | 0.00 | 0.00 | 43 | 1016.1 |
| 20260906172209 | 29 | 29 | 3.2 | 14.5 | 0.00 | 0.00 | 0.00 | 43 | 1016.3 |
| 20260906171437 | 29 | 158 | 6.4 | 14.5 | 0.00 | 0.00 | 0.00 | 44 | 1016.3 |
| 20260906170937 | 29 | 184 | 6.4 | 17.7 | 0.00 | 0.00 | 0.00 | 44 | 1016.3 |
| 20260906170437 | 28 | 111 | 6.4 | 19.3 | 0.00 | 0.00 | 0.00 | 45 | 1016.5 |
| 20260906165938 | 28 | 163 | 8.0 | 19.3 | 0.00 | 0.00 | 0.00 | 44 | 1016.5 |
| 20260906165708 | 28 | 49 | 4.8 | 14.5 | 0.00 | 0.00 | 0.00 | 45 | 1016.6 |
| 20260906164941 | 28 | 107 | 4.8 | 16.1 | 0.00 | 0.00 | 0.00 | 46 | 1016.6 |
| 20260906164936 | 28 | 9 | 4.8 | 16.1 | 0.00 | 0.00 | 0.00 | 44 | 1016.5 |
| 20260906163937 | 28 | 158 | 4.8 | 16.1 | 0.00 | 0.00 | 0.00 | 46 | 1016.6 |
| 20260906163438 | 28 | 333 | 6.4 | 20.9 | 0.00 | 0.00 | 0.00 | 46 | 1016.7 |
| 20260906162936 | 27 | 138 | 6.4 | 20.9 | 0.00 | 0.00 | 0.00 | 46 | 1016.8 |
| 20260906162704 | 27 | 300 | 8.0 | 22.5 | 0.00 | 0.00 | 0.00 | 47 | 1016.8 |
| 20260906162202 | 27 | 345 | 6.4 | 22.5 | 0.00 | 0.00 | 0.00 | 48 | 1016.8 |
| 20260906161431 | 27 | 24 | 4.8 | 16.1 | 0.00 | 0.00 | 0.00 | 48 | 1016.9 |
| 20260906160929 | 27 | 71 | 3.2 | 17.7 | 0.00 | 0.00 | 0.00 | 48 | 1016.9 |
| 20260906160429 | 26 | 202 | 4.8 | 20.9 | 0.00 | 0.00 | 0.00 | 49 | 1016.8 |
| 20260906155929 | 26 | 117 | 6.4 | 20.9 | 0.00 | 0.00 | 0.00 | 50 | 1016.7 |
| 20260906155429 | 26 | 74 | 6.4 | 14.5 | 0.00 | 0.00 | 0.00 | 51 | 1016.8 |
| 20260906154927 | 25 | 108 | 4.8 | 14.5 | 0.00 | 0.00 | 0.00 | 52 | 1016.8 |
| 20260906154428 | 25 | 270 | 4.8 | 14.5 | 0.00 | 0.00 | 0.00 | 52 | 1016.7 |
| 20260906153925 | 25 | 188 | 4.8 | 17.7 | 0.00 | 0.00 | 0.00 | 53 | 1016.8 |
| 20260906153425 | 25 | 11 | 4.8 | 17.7 | 0.00 | 0.00 | 0.00 | 53 | 1016.7 |
| 20260906152930 | 25 | 178 | 4.8 | 16.1 | 0.00 | 0.00 | 0.00 | 54 | 1016.8 |
| 20260906152926 | 25 | 80 | 4.8 | 12.9 | 0.00 | 0.00 | 0.00 | 53 | 1016.8 |
| 20260906151925 | 24 | 66 | 4.8 | 16.1 | 0.00 | 0.00 | 0.00 | 56 | 1016.8 |
| 20260906151423 | 23 | 153 | 3.2 | 8.0 | 0.00 | 0.00 | 0.00 | 57 | 1016.9 |
| 20260906150922 | 23 | 145 | 3.2 | 11.3 | 0.00 | 0.00 | 0.00 | 58 | 1016.9 |
| 20260906150422 | 23 | 102 | 4.8 | 11.3 | 0.00 | 0.00 | 0.00 | 59 | 1016.9 |
| 20260906145924 | 22 | 111 | 6.4 | 12.9 | 0.00 | 0.00 | 0.00 | 60 | 1016.9 |
| 20260906145653 | 22 | 95 | 8.0 | 14.5 | 0.00 | 0.00 | 0.00 | 60 | 1017.0 |
| 20260906144922 | 22 | 97 | 8.0 | 16.1 | 0.00 | 0.00 | 0.00 | 61 | 1017.0 |
| 20260906144652 | 22 | 81 | 8.0 | 19.3 | 0.00 | 0.00 | 0.00 | 62 | 1017.1 |
| 20260906143920 | 21 | 90 | 9.7 | 19.3 | 0.00 | 0.00 | 0.00 | 63 | 1017.0 |
| 20260906143421 | 21 | 123 | 8.0 | 17.7 | 0.00 | 0.00 | 0.00 | 64 | 1017.1 |
| 20260906142922 | 21 | 127 | 9.7 | 17.7 | 0.00 | 0.00 | 0.00 | 65 | 1017.1 |
| 20260906142421 | 21 | 151 | 9.7 | 17.7 | 0.00 | 0.00 | 0.00 | 66 | 1017.1 |
| 20260906141920 | 20 | 132 | 9.7 | 17.7 | 0.00 | 0.00 | 0.00 | 68 | 1017.3 |
| 20260906141421 | 20 | 112 | 8.0 | 16.1 | 0.00 | 0.00 | 0.00 | 70 | 1017.3 |
| 20260906140918 | 19 | 138 | 6.4 | 16.1 | 0.00 | 0.00 | 0.00 | 72 | 1017.3 |
| 20260906140418 | 18 | 146 | 4.8 | 11.3 | 0.00 | 0.00 | 0.00 | 75 | 1017.3 |
| 20260906135920 | 17 | 143 | 4.8 | 9.7 | 0.00 | 0.00 | 0.00 | 77 | 1017.4 |
| 20260906135419 | 17 | 139 | 3.2 | 9.7 | 0.00 | 0.00 | 0.00 | 78 | 1017.5 |
| 20260906134918 | 17 | 116 | 1.6 | 9.7 | 0.00 | 0.00 | 0.00 | 80 | 1017.5 |
| 20260906134419 | 16 | 63 | 1.6 | 9.7 | 0.00 | 0.00 | 0.00 | 81 | 1017.6 |
| 20260906133916 | 16 | 105 | 1.6 | 9.7 | 0.00 | 0.00 | 0.00 | 82 | 1017.5 |
| 20260906133418 | 16 | 117 | 0.0 | 9.7 | 0.00 | 0.00 | 0.00 | 82 | 1017.4 |
| 20260906132914 | 15 | 147 | 0.0 | 1.6 | 0.00 | 0.00 | 0.00 | 82 | 1017.5 |
| 20260906132416 | 15 | 147 | 0.0 | 0.0 | 0.00 | 0.00 | 0.00 | 82 | 1017.4 |
| 20260906131914 | 15 | 147 | 0.0 | 0.0 | 0.00 | 0.00 | 0.00 | 82 | 1017.3 |
| 20260906131414 | 15 | 147 | 0.0 | 0.0 | 0.00 | 0.00 | 0.00 | 81 | 1017.4 |
| 20260906130914 | 15 | 147 | 0.0 | 0.0 | 0.00 | 0.00 | 0.00 | 81 | 1017.3 |
| 20260906130414 | 15 | 147 | 0.0 | 0.0 | 0.00 | 0.00 | 0.00 | 81 | 1017.3 |
| 20260906125911 | 15 | 147 | 0.0 | 1.6 | 0.00 | 0.00 | 0.00 | 81 | 1017.3 |
| 20260906125415 | 15 | 147 | 3.2 | 6.4 | 0.00 | 0.00 | 0.00 | 81 | 1017.3 |
| 20260906125411 | 15 | 147 | 0.0 | 4.8 | 0.00 | 0.00 | 0.00 | 81 | 1017.3 |
| 20260906124639 | 15 | 147 | 3.2 | 6.4 | 0.00 | 0.00 | 0.00 | 81 | 1017.3 |
| 20260906123908 | 15 | 135 | 1.6 | 4.8 | 0.00 | 0.00 | 0.00 | 81 | 1017.3 |
| 20260906123641 | 15 | 134 | 3.2 | 6.4 | 0.00 | 0.00 | 0.00 | 81 | 1017.3 |
| 20260906122906 | 15 | 134 | 3.2 | 6.4 | 0.00 | 0.00 | 0.00 | 81 | 1017.4 |
| 20260906122639 | 15 | 134 | 1.6 | 4.8 | 0.00 | 0.00 | 0.00 | 80 | 1017.5 |
| 20260906121908 | 15 | 134 | 1.6 | 6.4 | 0.00 | 0.00 | 0.00 | 80 | 1017.3 |
| 20260906121406 | 15 | 134 | 1.6 | 6.4 | 0.00 | 0.00 | 0.00 | 79 | 1017.1 |
| 20260906120905 | 15 | 97 | 1.6 | 4.8 | 0.00 | 0.00 | 0.00 | 79 | 1017.1 |
| 20260906120404 | 15 | 75 | 0.0 | 3.2 | 0.00 | 0.00 | 0.00 | 78 | 1017.1 |
| 20260906115905 | 15 | 75 | 0.0 | 1.6 | 0.00 | 0.00 | 0.00 | 78 | 1016.9 |
| 20260906115405 | 15 | 75 | 1.6 | 4.8 | 0.00 | 0.00 | 0.00 | 77 | 1016.9 |
| 20260906114905 | 15 | 75 | 1.6 | 6.4 | 0.00 | 0.00 | 0.00 | 78 | 1016.9 |
| 20260906114636 | 16 | 103 | 3.2 | 6.4 | 0.00 | 0.00 | 0.00 | 77 | 1016.8 |
| 20260906113908 | 16 | 105 | 3.2 | 6.4 | 0.00 | 0.00 | 0.00 | 76 | 1016.8 |
| 20260906113634 | 16 | 153 | 3.2 | 6.4 | 0.00 | 0.00 | 0.00 | 76 | 1016.8 |
| 20260906112902 | 16 | 131 | 3.2 | 6.4 | 0.00 | 0.00 | 0.00 | 78 | 1016.8 |
| 20260906112404 | 16 | 140 | 1.6 | 4.8 | 0.00 | 0.00 | 0.00 | 77 | 1016.7 |
| 20260906111903 | 16 | 140 | 1.6 | 8.0 | 0.00 | 0.00 | 0.00 | 75 | 1016.7 |
| 20260906111401 | 16 | 140 | 3.2 | 9.7 | 0.00 | 0.00 | 0.00 | 77 | 1016.7 |
| 20260906111130 | 16 | 156 | 1.6 | 9.7 | 0.00 | 0.00 | 0.00 | 77 | 1016.7 |
| 20260906110401 | 16 | 148 | 0.0 | 3.2 | 0.00 | 0.00 | 0.00 | 76 | 1016.6 |
| 20260906105900 | 16 | 148 | 0.0 | 3.2 | 0.00 | 0.00 | 0.00 | 76 | 1016.7 |
| 20260906105357 | 16 | 146 | 0.0 | 0.0 | 0.00 | 0.00 | 0.00 | 76 | 1016.6 |
| 20260906104858 | 17 | 146 | 0.0 | 4.8 | 0.00 | 0.00 | 0.00 | 75 | 1016.6 |
| 20260906104359 | 17 | 146 | 0.0 | 6.4 | 0.00 | 0.00 | 0.00 | 76 | 1016.6 |
| 20260906103855 | 17 | 146 | 0.0 | 6.4 | 0.00 | 0.00 | 0.00 | 75 | 1016.3 |
| 20260906103357 | 17 | 115 | 0.0 | 4.8 | 0.00 | 0.00 | 0.00 | 75 | 1016.3 |
| 20260906102855 | 17 | 115 | 0.0 | 4.8 | 0.00 | 0.00 | 0.00 | 74 | 1016.6 |
| 20260906102351 | 17 | 115 | 0.0 | 3.2 | 0.00 | 0.00 | 0.00 | 74 | 1016.6 |
| 20260906101853 | 17 | 115 | 1.6 | 6.4 | 0.00 | 0.00 | 0.00 | 73 | 1016.6 |
| 20260906101353 | 17 | 115 | 3.2 | 6.4 | 0.00 | 0.00 | 0.00 | 73 | 1016.6 |
| 20260906100850 | 17 | 74 | 4.8 | 8.0 | 0.00 | 0.00 | 0.00 | 73 | 1016.6 |
| 20260906100355 | 17 | 56 | 3.2 | 11.3 | 0.00 | 0.00 | 0.00 | 75 | 1016.5 |
| 20260906100350 | 17 | 131 | 4.8 | 11.3 | 0.00 | 0.00 | 0.00 | 74 | 1016.6 |
| 20260906095349 | 17 | 355 | 4.8 | 9.7 | 0.00 | 0.00 | 0.00 | 76 | 1016.5 |
| 20260906094849 | 17 | 117 | 3.2 | 9.7 | 0.00 | 0.00 | 0.00 | 77 | 1016.6 |
| 20260906094349 | 17 | 93 | 3.2 | 14.5 | 0.00 | 0.00 | 0.00 | 78 | 1016.6 |
| 20260906093851 | 16 | 68 | 4.8 | 14.5 | 0.00 | 0.00 | 0.00 | 79 | 1016.5 |
| 20260906093350 | 16 | 76 | 3.2 | 9.7 | 0.00 | 0.00 | 0.00 | 78 | 1016.3 |
| 20260906092849 | 16 | 119 | 1.6 | 6.4 | 0.00 | 0.00 | 0.00 | 80 | 1016.3 |
| 20260906091852 | 16 | 121 | 0.0 | 1.6 | 0.00 | 0.00 | 0.00 | 77 | 1016.3 |
| 20260906091351 | 16 | 121 | 0.0 | 4.8 | 0.00 | 0.00 | 0.00 | 77 | 1016.3 |
| 20260906090849 | 16 | 121 | 0.0 | 4.8 | 0.00 | 0.00 | 0.00 | 77 | 1016.3 |
| 20260906090351 | 17 | 132 | 3.2 | 11.3 | 0.00 | 0.00 | 0.00 | 77 | 1016.2 |
| 20260906085849 | 17 | 133 | 3.2 | 11.3 | 0.00 | 0.00 | 0.00 | 77 | 1016.2 |
| 20260906085350 | 17 | 153 | 0.0 | 11.3 | 0.00 | 0.00 | 0.00 | 77 | 1016.2 |
| 20260906085120 | 17 | 84 | 0.0 | 1.6 | 0.00 | 0.00 | 0.00 | 76 | 1016.2 |
| 20260906084346 | 17 | 84 | 0.0 | 4.8 | 0.00 | 0.00 | 0.00 | 76 | 1016.0 |
| 20260906083845 | 17 | 84 | 0.0 | 4.8 | 0.00 | 0.00 | 0.00 | 75 | 1016.0 |
| 20260906083616 | 17 | 84 | 1.6 | 6.4 | 0.00 | 0.00 | 0.00 | 75 | 1015.8 |
| 20260906083113 | 18 | 51 | 1.6 | 6.4 | 0.00 | 0.00 | 0.00 | 74 | 1015.8 |
| 20260906082341 | 18 | 156 | 0.0 | 3.2 | 0.00 | 0.00 | 0.00 | 73 | 1015.7 |
| 20260906081841 | 18 | 184 | 0.0 | 9.7 | 0.00 | 0.00 | 0.00 | 73 | 1015.6 |
| 20260906081341 | 18 | 185 | 0.0 | 9.7 | 0.00 | 0.00 | 0.00 | 72 | 1015.6 |
| 20260906081110 | 18 | 152 | 0.0 | 1.6 | 0.00 | 0.00 | 0.00 | 72 | 1015.8 |
| 20260906080338 | 18 | 152 | 1.6 | 8.0 | 0.00 | 0.00 | 0.00 | 72 | 1015.9 |
| 20260906080106 | 19 | 171 | 1.6 | 8.0 | 0.00 | 0.00 | 0.00 | 72 | 1015.8 |
| 20260906075337 | 19 | 129 | 0.0 | 8.0 | 0.00 | 0.00 | 0.00 | 71 | 1015.8 |
| 20260906074837 | 19 | 156 | 1.6 | 9.7 | 0.00 | 0.00 | 0.00 | 71 | 1016.0 |
| 20260906074337 | 19 | 156 | 4.8 | 17.7 | 0.00 | 0.00 | 0.00 | 71 | 1016.0 |
| 20260906073836 | 19 | 178 | 6.4 | 17.7 | 0.00 | 0.00 | 0.00 | 71 | 1016.1 |
| 20260906073335 | 19 | 193 | 6.4 | 16.1 | 0.00 | 0.00 | 0.00 | 71 | 1016.1 |
| 20260906072835 | 19 | 128 | 9.7 | 24.1 | 0.00 | 0.00 | 0.00 | 71 | 1016.2 |
| 20260906072336 | 20 | 126 | 9.7 | 24.1 | 0.00 | 0.00 | 0.00 | 71 | 1016.1 |
| 20260906071834 | 20 | 191 | 9.7 | 24.1 | 0.00 | 0.00 | 0.00 | 71 | 1016.0 |
| 20260906071333 | 20 | 131 | 9.7 | 24.1 | 0.00 | 0.00 | 0.00 | 71 | 1016.1 |
| 20260906071103 | 19 | 123 | 8.0 | 17.7 | 0.00 | 0.00 | 0.00 | 71 | 1016.0 |
| 20260906070333 | 19 | 150 | 6.4 | 17.7 | 0.00 | 0.00 | 0.00 | 73 | 1016.0 |
| 20260906065830 | 19 | 138 | 6.4 | 22.5 | 0.00 | 0.00 | 0.00 | 74 | 1016.0 |
| 20260906065559 | 19 | 112 | 8.0 | 22.5 | 0.00 | 0.00 | 0.00 | 74 | 1016.0 |
| 20260906064829 | 20 | 91 | 9.7 | 22.5 | 0.00 | 0.00 | 0.00 | 74 | 1016.1 |
| 20260906064330 | 20 | 131 | 9.7 | 22.5 | 0.00 | 0.00 | 0.00 | 74 | 1016.1 |
| 20260906064059 | 20 | 141 | 9.7 | 22.5 | 0.00 | 0.00 | 0.00 | 74 | 1016.0 |
| 20260906063328 | 20 | 148 | 8.0 | 20.9 | 0.00 | 0.00 | 0.00 | 74 | 1016.1 |
| 20260906062826 | 20 | 146 | 8.0 | 20.9 | 0.00 | 0.00 | 0.00 | 74 | 1016.2 |
| 20260906062325 | 20 | 159 | 9.7 | 19.3 | 0.00 | 0.00 | 0.00 | 73 | 1016.1 |
| 20260906062056 | 20 | 136 | 9.7 | 24.1 | 0.00 | 0.00 | 0.00 | 73 | 1016.2 |
| 20260906061327 | 20 | 165 | 8.0 | 24.1 | 0.00 | 0.00 | 0.00 | 72 | 1016.3 |
| 20260906061056 | 20 | 144 | 8.0 | 25.7 | 0.00 | 0.00 | 0.00 | 72 | 1016.2 |
| 20260906060326 | 20 | 114 | 8.0 | 25.7 | 0.00 | 0.00 | 0.00 | 72 | 1016.2 |
| 20260906055823 | 20 | 163 | 8.0 | 19.3 | 0.00 | 0.00 | 0.00 | 71 | 1016.3 |
| 20260906055322 | 20 | 123 | 8.0 | 19.3 | 0.00 | 0.00 | 0.00 | 71 | 1016.2 |
| 20260906054822 | 20 | 101 | 6.4 | 16.1 | 0.00 | 0.00 | 0.00 | 71 | 1015.9 |
| 20260906054323 | 20 | 200 | 6.4 | 19.3 | 0.00 | 0.00 | 0.00 | 70 | 1016.0 |
| 20260906053820 | 20 | 163 | 6.4 | 19.3 | 0.00 | 0.00 | 0.00 | 70 | 1015.9 |
| 20260906053321 | 20 | 153 | 8.0 | 17.7 | 0.00 | 0.00 | 0.00 | 71 | 1015.8 |
| 20260906053051 | 20 | 133 | 8.0 | 17.7 | 0.00 | 0.00 | 0.00 | 71 | 1015.6 |
| 20260906052321 | 21 | 169 | 6.4 | 19.3 | 0.00 | 0.00 | 0.00 | 71 | 1015.7 |
| 20260906051818 | 21 | 149 | 6.4 | 19.3 | 0.00 | 0.00 | 0.00 | 71 | 1015.7 |
| 20260906051320 | 21 | 102 | 8.0 | 19.3 | 0.00 | 0.00 | 0.00 | 71 | 1015.7 |
| 20260906050820 | 21 | 134 | 6.4 | 19.3 | 0.00 | 0.00 | 0.00 | 71 | 1015.7 |
| 20260906050547 | 21 | 82 | 4.8 | 12.9 | 0.00 | 0.00 | 0.00 | 71 | 1015.7 |
| 20260906050437 | 21 | 108 | 4.8 | 11.3 | 0.00 | 0.00 | 0.00 | 71 | 1015.6 |
| 20260906045318 | 21 | 115 | 4.8 | 14.5 | 0.00 | 0.00 | 0.00 | 70 | 1015.4 |
| 20260906044817 | 21 | 132 | 4.8 | 14.5 | 0.00 | 0.00 | 0.00 | 71 | 1015.4 |
| 20260906044315 | 21 | 86 | 8.0 | 19.3 | 0.00 | 0.00 | 0.00 | 71 | 1015.2 |
| 20260906043816 | 21 | 150 | 11.3 | 19.3 | 0.00 | 0.00 | 0.00 | 71 | 1015.2 |
| 20260906043317 | 21 | 122 | 12.9 | 24.1 | 0.00 | 0.00 | 0.00 | 71 | 1015.3 |
| 20260906042817 | 21 | 144 | 12.9 | 24.1 | 0.00 | 0.00 | 0.00 | 71 | 1015.4 |
| 20260906042314 | 21 | 158 | 11.3 | 22.5 | 0.00 | 0.00 | 0.00 | 72 | 1015.4 |
| 20260906041815 | 20 | 192 | 11.3 | 22.5 | 0.00 | 0.00 | 0.00 | 73 | 1015.6 |
| 20260906041312 | 20 | 123 | 11.3 | 25.7 | 0.00 | 0.00 | 0.00 | 73 | 1015.8 |
| 20260906040812 | 20 | 150 | 12.9 | 25.7 | 0.00 | 0.00 | 0.00 | 73 | 1015.9 |
| 20260906040312 | 20 | 131 | 12.9 | 25.7 | 0.00 | 0.00 | 0.00 | 73 | 1016.0 |
| 20260906035811 | 20 | 123 | 12.9 | 25.7 | 0.00 | 0.00 | 0.00 | 73 | 1016.2 |
| 20260906035312 | 20 | 145 | 12.9 | 25.7 | 0.00 | 0.00 | 0.00 | 73 | 1016.3 |
| 20260906034814 | 20 | 140 | 12.9 | 29.0 | 0.00 | 0.00 | 0.00 | 72 | 1016.1 |
| 20260906034311 | 20 | 136 | 14.5 | 29.0 | 0.00 | 0.00 | 0.00 | 72 | 1016.1 |
| 20260906033813 | 20 | 141 | 14.5 | 33.8 | 0.00 | 0.00 | 0.00 | 72 | 1016.3 |
| 20260906033311 | 20 | 146 | 14.5 | 33.8 | 0.00 | 0.00 | 0.00 | 71 | 1016.2 |
| 20260906032812 | 20 | 169 | 11.3 | 30.6 | 0.00 | 0.00 | 0.00 | 72 | 1016.2 |
| 20260906032312 | 21 | 114 | 14.5 | 41.8 | 0.00 | 0.00 | 0.00 | 73 | 1016.2 |
| 20260906032043 | 21 | 158 | 14.5 | 41.8 | 0.00 | 0.00 | 0.00 | 71 | 1016.2 |
| 20260906031313 | 21 | 154 | 11.3 | 22.5 | 0.00 | 0.00 | 0.00 | 69 | 1016.0 |
| 20260906030812 | 21 | 167 | 9.7 | 22.5 | 0.00 | 0.00 | 0.00 | 68 | 1015.9 |
| 20260906030312 | 21 | 160 | 9.7 | 20.9 | 0.00 | 0.00 | 0.00 | 67 | 1015.7 |
| 20260906025811 | 21 | 128 | 9.7 | 20.9 | 0.00 | 0.00 | 0.00 | 68 | 1015.7 |
| 20260906025310 | 21 | 127 | 9.7 | 19.3 | 0.00 | 0.00 | 0.00 | 69 | 1015.8 |
| 20260906024814 | 21 | 134 | 11.3 | 25.7 | 0.00 | 0.00 | 0.00 | 70 | 1015.7 |
| 20260906024809 | 21 | 119 | 9.7 | 19.3 | 0.00 | 0.00 | 0.00 | 70 | 1015.8 |
| 20260906023809 | 21 | 169 | 12.9 | 25.7 | 0.00 | 0.00 | 0.00 | 70 | 1015.3 |
| 20260906023315 | 21 | 123 | 9.7 | 27.4 | 0.00 | 0.00 | 0.00 | 73 | 1015.6 |
| 20260906023310 | 21 | 167 | 9.7 | 27.4 | 0.00 | 0.00 | 0.00 | 72 | 1015.6 |
| 20260906022542 | 21 | 130 | 11.3 | 22.5 | 0.00 | 0.00 | 0.00 | 74 | 1015.6 |
| 20260906021810 | 21 | 76 | 9.7 | 19.3 | 0.00 | 0.00 | 0.00 | 72 | 1015.8 |
| 20260906021313 | 21 | 124 | 8.0 | 29.0 | 0.00 | 0.00 | 0.00 | 70 | 1015.8 |
| 20260906021044 | 21 | 101 | 9.7 | 29.0 | 0.00 | 0.00 | 0.00 | 68 | 1015.8 |
| 20260906020310 | 21 | 166 | 9.7 | 22.5 | 0.00 | 0.00 | 0.00 | 68 | 1015.9 |
| 20260906015809 | 21 | 128 | 9.7 | 22.5 | 0.00 | 0.00 | 0.00 | 66 | 1015.8 |
| 20260906015310 | 21 | 130 | 11.3 | 22.5 | 0.00 | 0.00 | 0.00 | 65 | 1015.8 |
| 20260906014810 | 21 | 93 | 11.3 | 22.5 | 0.00 | 0.00 | 0.00 | 65 | 1015.7 |
| 20260906014311 | 21 | 88 | 12.9 | 29.0 | 0.00 | 0.00 | 0.00 | 65 | 1015.6 |
| 20260906014041 | 21 | 135 | 16.1 | 37.0 | 0.00 | 0.00 | 0.00 | 66 | 1015.8 |
| 20260906013307 | 21 | 103 | 16.1 | 37.0 | 0.00 | 0.00 | 0.00 | 66 | 1015.8 |
| 20260906012808 | 22 | 140 | 16.1 | 37.0 | 0.00 | 0.00 | 0.00 | 66 | 1015.7 |
| 20260906012307 | 22 | 118 | 16.1 | 37.0 | 0.00 | 0.00 | 0.00 | 66 | 1015.8 |
| 20260906011808 | 22 | 105 | 9.7 | 33.8 | 0.00 | 0.00 | 0.00 | 66 | 1015.3 |
| 20260906011307 | 22 | 47 | 6.4 | 19.3 | 0.00 | 0.00 | 0.00 | 66 | 1015.3 |
| 20260906010809 | 23 | 158 | 6.4 | 19.3 | 0.00 | 0.00 | 0.00 | 66 | 1015.2 |
| 20260906010540 | 23 | 84 | 8.0 | 22.5 | 0.00 | 0.00 | 0.00 | 66 | 1014.8 |
| 20260906005808 | 23 | 68 | 9.7 | 27.4 | 0.00 | 0.00 | 0.00 | 65 | 1014.8 |
| 20260906005309 | 23 | 258 | 6.4 | 27.4 | 0.00 | 0.00 | 0.00 | 64 | 1014.5 |
| 20260906004809 | 23 | 184 | 4.8 | 30.6 | 0.00 | 0.00 | 0.00 | 63 | 1014.8 |
| 20260906004306 | 24 | 92 | 9.7 | 30.6 | 0.00 | 0.00 | 0.00 | 61 | 1014.6 |
| 20260906003807 | 24 | 135 | 12.9 | 30.6 | 0.00 | 0.00 | 0.00 | 61 | 1014.5 |
| 20260906003306 | 24 | 173 | 12.9 | 30.6 | 0.00 | 0.00 | 0.00 | 60 | 1014.5 |
| 20260906002805 | 25 | 80 | 11.3 | 29.0 | 0.00 | 0.00 | 0.00 | 59 | 1014.6 |
| 20260906002306 | 25 | 24 | 11.3 | 24.1 | 0.00 | 0.00 | 0.00 | 59 | 1014.5 |
| 20260906001807 | 25 | 140 | 9.7 | 38.6 | 0.00 | 0.00 | 0.00 | 57 | 1014.6 |
| 20260906001537 | 26 | 119 | 12.9 | 38.6 | 0.00 | 0.00 | 0.00 | 53 | 1014.8 |
| 20260906000805 | 27 | 103 | 17.7 | 40.2 | 0.00 | 0.00 | 0.00 | 48 | 1014.1 |
| 20260906000304 | 30 | 149 | 14.5 | 40.2 | 0.00 | 0.00 | 0.00 | 44 | 1014.3 |
| 20260905235804 | 31 | 87 | 11.3 | 32.2 | 0.00 | 0.00 | 0.00 | 35 | 1013.8 |
| 20260905235301 | 31 | 78 | 9.7 | 24.1 | 0.00 | 0.00 | 0.00 | 35 | 1013.5 |
| 20260905234802 | 31 | 146 | 9.7 | 25.7 | 0.00 | 0.00 | 0.00 | 34 | 1012.9 |
| 20260905234259 | 32 | 115 | 9.7 | 25.7 | 0.00 | 0.00 | 0.00 | 35 | 1013.0 |
| 20260905233759 | 32 | 73 | 8.0 | 19.3 | 0.00 | 0.00 | 0.00 | 34 | 1013.0 |
| 20260905233259 | 33 | 94 | 6.4 | 17.7 | 0.00 | 0.00 | 0.00 | 36 | 1012.8 |
| 20260905232800 | 33 | 186 | 6.4 | 17.7 | 0.00 | 0.00 | 0.00 | 36 | 1012.7 |
| 20260905232300 | 33 | 77 | 4.8 | 16.1 | 0.00 | 0.00 | 0.00 | 35 | 1012.6 |
| 20260905231759 | 33 | 64 | 3.2 | 16.1 | 0.00 | 0.00 | 0.00 | 35 | 1012.7 |
| 20260905231529 | 33 | 46 | 3.2 | 16.1 | 0.00 | 0.00 | 0.00 | 33 | 1012.7 |
| 20260905230801 | 33 | 293 | 1.6 | 12.9 | 0.00 | 0.00 | 0.00 | 29 | 1012.7 |
| 20260905230258 | 33 | 17 | 3.2 | 16.1 | 0.00 | 0.00 | 0.00 | 28 | 1012.8 |
| 20260905225758 | 33 | 0 | 3.2 | 16.1 | 0.00 | 0.00 | 0.00 | 28 | 1012.8 |
| 20260905225257 | 33 | 115 | 3.2 | 12.9 | 0.00 | 0.00 | 0.00 | 27 | 1012.6 |
| 20260905224757 | 33 | 255 | 4.8 | 14.5 | 0.00 | 0.00 | 0.00 | 27 | 1012.5 |
| 20260905224257 | 33 | 286 | 6.4 | 14.5 | 0.00 | 0.00 | 0.00 | 27 | 1012.4 |
| 20260905223759 | 34 | 281 | 6.4 | 14.5 | 0.00 | 0.00 | 0.00 | 26 | 1012.4 |
| 20260905223529 | 34 | 263 | 6.4 | 14.5 | 0.00 | 0.00 | 0.00 | 26 | 1012.2 |
| 20260905222758 | 34 | 257 | 6.4 | 16.1 | 0.00 | 0.00 | 0.00 | 26 | 1012.4 |
| 20260905222257 | 35 | 300 | 9.7 | 22.5 | 0.00 | 0.00 | 0.00 | 26 | 1012.6 |
| 20260905221758 | 35 | 281 | 11.3 | 22.5 | 0.00 | 0.00 | 0.00 | 25 | 1012.6 |
| 20260905221257 | 35 | 277 | 9.7 | 17.7 | 0.00 | 0.00 | 0.00 | 25 | 1012.7 |
| 20260905220757 | 35 | 311 | 8.0 | 17.7 | 0.00 | 0.00 | 0.00 | 25 | 1012.7 |
| 20260905220258 | 35 | 278 | 9.7 | 17.7 | 0.00 | 0.00 | 0.00 | 23 | 1012.7 |
| 20260905215757 | 36 | 322 | 8.0 | 17.7 | 0.00 | 0.00 | 0.00 | 24 | 1012.8 |
| 20260905215258 | 36 | 269 | 6.4 | 20.9 | 0.00 | 0.00 | 0.00 | 23 | 1012.7 |
| 20260905214755 | 35 | 247 | 4.8 | 20.9 | 0.00 | 0.00 | 0.00 | 23 | 1012.8 |
| 20260905214255 | 35 | 275 | 3.2 | 20.9 | 0.00 | 0.00 | 0.00 | 23 | 1012.9 |
| 20260905213755 | 35 | 316 | 4.8 | 14.5 | 0.00 | 0.00 | 0.00 | 23 | 1013.0 |
| 20260905213256 | 35 | 133 | 8.0 | 17.7 | 0.00 | 0.00 | 0.00 | 24 | 1013.2 |
| 20260905212755 | 35 | 165 | 8.0 | 20.9 | 0.00 | 0.00 | 0.00 | 23 | 1013.3 |
| 20260905212255 | 35 | 142 | 4.8 | 20.9 | 0.00 | 0.00 | 0.00 | 24 | 1013.3 |
| 20260905211755 | 35 | 88 | 6.4 | 17.7 | 0.00 | 0.00 | 0.00 | 23 | 1013.4 |
| 20260905211256 | 36 | 143 | 6.4 | 17.7 | 0.00 | 0.00 | 0.00 | 23 | 1013.5 |
| 20260905210757 | 36 | 138 | 4.8 | 16.1 | 0.00 | 0.00 | 0.00 | 23 | 1013.5 |